Location: 22
(39.7117°N, 89.5929°W)
Time: 06:56:21
(UTC-05:00)

A-11 Canister half - Pass Details

Date: 04 February 2023
Orbit: 1526 x 1682 km, 47.3° (Epoch: 01 April)

Event Time Altitude Azimuth Distance (km) Brightness Sun altitude
Exits shadow 02:27:37 12° 125° (SE) 3,566 11.0 -52.4°
Maximum altitude 02:28:04 12° 122° (ESE) 3,562 11.1 -52.3°
Drops below altitude 10° 02:30:48 10° 104° (ESE) 3,689 11.3 -51.9°
Sets 02:36:46 0° 75° (ENE) 4,681 12.2 -50.8°
